Laconia, NH

6:04 AM EDT on September 26, 2016 (GMT -0400)
Laconia Municipal

Weather History for KLCI - December, 2011

Change the Weather History Date:

Sunday, December 4, 2011

  Actual Average Record
Temperature  
Mean Temperature 36 °F -  
Max Temperature 48 °F 38 °F 64 °F (1998)
Min Temperature 24 °F 22 °F -2 °F (1976)
Degree Days  
Heating Degree Days 29    
Moisture  
Dew Point 28 °F    
Average Humidity 77    
Maximum Humidity 93    
Minimum Humidity 50    
Precipitation  
Precipitation 0.00 in - - ()
Sea Level Pressure  
Sea Level Pressure 30.44 in    
Wind  
Wind Speed 2 mph (SSW)    
Max Wind Speed 13 mph    
Max Gust Speed 23 mph    
Visibility 10 miles    
Events      
Averages and records for this station are not official NWS values.
T = Trace of Precipitation, MM = Missing Value Source: NWS Daily Summary

Daily Weather History Graph

Daily Weather History Graph

Search for Another Location

Airport or City:

Trip Planner

Search our weather history database for the weather conditions in past years. The results will help you decide how hot, cold, wet, or windy it might be!

Date:

Astronomy

Dec. 04, 2011 Rise Set
Actual Time 7:01 AM EST 4:09 PM EST
Civil Twilight 6:29 AM EST 4:41 PM EST
Nautical Twilight 5:53 AM EST 5:17 PM EST
Astronomical Twilight 5:19 AM EST 5:52 PM EST
Moon 12:46 PM EST (12/4) 1:15 AM EST (12/4)
Length of Visible Light 10h 12m
Length of Day
9h 07m
Waxing Gibbous, 71% of the Moon is Illuminated
Dec 4
Waxing Gibbous
Dec 10
Full
Dec 17
Last Quarter
Dec 24
New
Jan 1
First Quarter

Hourly Weather History & Observations

Time (EST) Temp. Windchill Dew Point Humidity Pressure Visibility Wind Dir Wind Speed Gust Speed Precip Events Conditions
12:15 AM 24.8 °F - 21.2 °F 86% 30.58 in 10.0 mi Calm Calm - N/A   Clear
12:35 AM 24.8 °F - 21.2 °F 86% 30.57 in 10.0 mi Calm Calm - N/A   Clear
12:55 AM 24.8 °F - 21.2 °F 86% 30.57 in 10.0 mi Calm Calm - N/A   Clear
1:15 AM 24.8 °F - 21.2 °F 86% 30.56 in 10.0 mi Calm Calm - N/A   Clear
1:35 AM 24.8 °F - 21.2 °F 86% 30.56 in 10.0 mi Calm Calm - N/A   Clear
1:55 AM 24.8 °F - 21.2 °F 86% 30.56 in 10.0 mi Calm Calm - N/A   Clear
2:55 AM 26.6 °F 22.6 °F 24.8 °F 93% 30.55 in 8.0 mi West 3.5 mph - N/A   Clear
3:35 AM 26.6 °F - 23.0 °F 86% 30.54 in 9.0 mi Calm Calm - N/A   Clear
3:55 AM 24.8 °F - 21.2 °F 86% 30.54 in 10.0 mi Calm Calm - N/A   Clear
4:15 AM 24.8 °F - 21.2 °F 86% 30.54 in 9.0 mi Calm Calm - N/A   Clear
4:55 AM 24.8 °F - 21.2 °F 86% 30.55 in 9.0 mi Calm Calm - N/A   Clear
5:15 AM 24.8 °F - 21.2 °F 86% 30.54 in 10.0 mi Calm Calm - N/A   Clear
5:35 AM 24.8 °F - 21.2 °F 86% 30.54 in 10.0 mi Calm Calm - N/A   Scattered Clouds
5:55 AM 24.8 °F - 21.2 °F 86% 30.53 in 10.0 mi Calm Calm - N/A   Overcast
6:15 AM 24.8 °F - 23.0 °F 93% 30.53 in 10.0 mi Calm Calm - N/A   Overcast
6:35 AM 26.6 °F - 23.0 °F 86% 30.53 in 10.0 mi Calm Calm - N/A   Overcast
7:15 AM 26.6 °F - 24.8 °F 93% 30.53 in 10.0 mi Calm Calm - N/A   Overcast
7:35 AM 28.4 °F - 24.8 °F 86% 30.53 in 10.0 mi Calm Calm - N/A   Overcast
7:55 AM 28.4 °F - 26.6 °F 93% 30.53 in 9.0 mi Calm Calm - N/A   Overcast
8:15 AM 28.4 °F - 26.6 °F 93% 30.51 in 8.0 mi Calm Calm - N/A   Mostly Cloudy
8:35 AM 28.4 °F - 26.6 °F 93% 30.51 in 8.0 mi Calm Calm - N/A   Scattered Clouds
8:55 AM 30.2 °F - 28.4 °F 93% 30.50 in 8.0 mi Calm Calm - N/A   Mostly Cloudy
9:15 AM 35.6 °F - 32.0 °F 87% 30.50 in 10.0 mi Calm Calm - N/A   Overcast
9:55 AM 39.2 °F 32.0 °F 32.0 °F 75% 30.49 in 10.0 mi WSW 11.5 mph 16.1 mph N/A   Clear
10:15 AM 39.2 °F 31.6 °F 32.0 °F 75% 30.49 in 10.0 mi SW 12.7 mph 23.0 mph N/A   Clear
10:35 AM 41.0 °F 34.7 °F 32.0 °F 70% 30.48 in 10.0 mi SSW 10.4 mph 20.7 mph N/A   Clear
10:55 AM 42.8 °F 38.0 °F 32.0 °F 66% 30.46 in 10.0 mi SSW 8.1 mph - N/A   Clear
11:15 AM 42.8 °F 36.6 °F 32.0 °F 66% 30.45 in 10.0 mi SSW 11.5 mph 16.1 mph N/A   Clear
11:35 AM 44.6 °F 39.2 °F 32.0 °F 61% 30.45 in 10.0 mi South 10.4 mph - N/A   Clear
12:15 PM 44.6 °F 40.2 °F 30.2 °F 57% 30.42 in 10.0 mi SSW 8.1 mph - N/A   Clear
12:35 PM 44.6 °F 41.4 °F 32.0 °F 61% 30.41 in 10.0 mi South 5.8 mph - N/A   Clear
12:55 PM 46.4 °F 41.9 °F 32.0 °F 57% 30.40 in 10.0 mi South 9.2 mph - N/A   Clear
1:15 PM 46.4 °F 42.4 °F 32.0 °F 57% 30.38 in 10.0 mi SSW 8.1 mph - N/A   Clear
1:35 PM 46.4 °F 41.9 °F 32.0 °F 57% 30.38 in 10.0 mi South 9.2 mph - N/A   Clear
1:55 PM 48.2 °F - 32.0 °F 54% 30.38 in 10.0 mi South 8.1 mph - N/A   Clear
2:15 PM 48.2 °F - 32.0 °F 54% 30.37 in 10.0 mi SSW 6.9 mph - N/A   Clear
2:35 PM 48.2 °F - 32.0 °F 54% 30.37 in 10.0 mi SSW 5.8 mph - N/A   Clear
3:15 PM 48.2 °F - 30.2 °F 50% 30.37 in 10.0 mi SSW 10.4 mph - N/A   Clear
3:35 PM 48.2 °F - 30.2 °F 50% 30.36 in 10.0 mi SSW 8.1 mph - N/A   Clear
3:55 PM 48.2 °F - 30.2 °F 50% 30.35 in 10.0 mi South 6.9 mph - N/A   Clear
4:15 PM 46.4 °F 45.2 °F 30.2 °F 53% 30.35 in 10.0 mi South 3.5 mph - N/A   Clear
4:35 PM 44.6 °F 42.2 °F 32.0 °F 61% 30.35 in 10.0 mi South 4.6 mph - N/A   Clear
4:55 PM 41.0 °F 39.0 °F 30.2 °F 65% 30.35 in 10.0 mi SSW 3.5 mph - N/A   Clear
5:35 PM 37.4 °F - 28.4 °F 70% 30.35 in 10.0 mi Calm Calm - N/A   Clear
5:55 PM 39.2 °F 37.0 °F 32.0 °F 75% 30.35 in 10.0 mi SW 3.5 mph - N/A   Clear
6:35 PM 39.2 °F - 32.0 °F 75% 30.35 in 10.0 mi Calm Calm - N/A   Clear
6:55 PM 39.2 °F 35.9 °F 33.8 °F 81% 30.35 in 10.0 mi West 4.6 mph - N/A   Clear
7:15 PM 37.4 °F 33.8 °F 33.8 °F 87% 30.36 in 10.0 mi West 4.6 mph - N/A   Clear
7:35 PM 37.4 °F 33.8 °F 33.8 °F 87% 30.35 in 10.0 mi SW 4.6 mph - N/A   Clear
7:55 PM 37.4 °F - 32.0 °F 81% 30.35 in 10.0 mi Calm Calm - N/A   Clear
8:15 PM 35.6 °F 32.8 °F 33.8 °F 93% 30.35 in 10.0 mi SW 3.5 mph - N/A   Clear
8:35 PM 35.6 °F 32.8 °F 30.2 °F 81% 30.34 in 10.0 mi WNW 3.5 mph - N/A   Clear
8:55 PM 35.6 °F - 32.0 °F 87% 30.33 in 10.0 mi Calm Calm - N/A   Clear
9:15 PM 35.6 °F - 32.0 °F 87% 30.33 in 10.0 mi Calm Calm - N/A   Clear
9:35 PM 35.6 °F - 32.0 °F 87% 30.32 in 10.0 mi Calm Calm - N/A   Clear
9:55 PM 35.6 °F - 32.0 °F 87% 30.32 in 10.0 mi Calm Calm - N/A   Clear
10:15 PM 35.6 °F 32.8 °F 30.2 °F 81% 30.32 in 10.0 mi WNW 3.5 mph - N/A   Clear
10:35 PM 33.8 °F 28.6 °F 32.0 °F 93% 30.33 in 10.0 mi NW 5.8 mph - N/A   Clear
10:55 PM 35.6 °F - 32.0 °F 87% 30.33 in 8.0 mi Calm Calm - N/A   Clear
11:15 PM 33.8 °F - 30.2 °F 87% 30.33 in 8.0 mi Calm Calm - N/A   Clear
11:35 PM 33.8 °F 30.8 °F 30.2 °F 87% 30.34 in 7.0 mi WSW 3.5 mph - N/A   Clear
11:55 PM 33.8 °F - 32.0 °F 93% 30.33 in 5.0 mi Calm Calm - N/A   Clear